Date,TemperatureHighF,TemperatureAvgF,TemperatureLowF,DewpointHighF,DewpointAvgF,DewpointLowF,HumidityHigh,HumidityAvg,HumidityLow,PressureMaxIn,PressureMinIn,WindSpeedMaxMPH,WindSpeedAvgMPH,GustSpeedMaxMPH,PrecipitationSumIn
2013-1-1,67.3,57.3,48.0,63.0,55.1,45.9,95,92,86,30.13,29.90,18,4,18,1.21
2013-1-2,48.0,43.9,40.1,45.9,40.8,37.0,93,89,85,30.27,30.10,16,5,16,1.21
2013-1-3,51.6,42.6,37.0,37.2,34.0,29.5,89,72,53,30.40,30.23,17,6,17,0.00
2013-1-4,55.4,45.4,36.0,38.5,33.0,28.8,82,63,38,30.48,30.33,12,4,13,0.00
2013-1-5,54.1,48.2,44.4,44.4,38.5,33.8,91,70,52,30.36,30.22,12,4,12,0.01
2013-1-6,53.1,47.4,43.7,47.3,44.2,40.1,94,89,79,30.30,30.19,17,5,17,0.43
2013-1-7,59.7,50.0,39.2,45.1,39.9,36.9,91,70,46,30.33,30.15,16,4,16,0.00
2013-1-8,62.6,56.7,50.4,60.8,52.0,40.6,95,85,60,30.20,30.03,19,4,19,2.36
2013-1-9,66.2,63.4,60.8,64.6,61.9,59.4,96,95,94,30.17,30.06,19,5,20,1.20
2013-1-10,70.0,65.4,63.5,68.4,63.8,61.7,96,95,93,30.15,29.96,25,4,27,2.03
2013-1-11,70.3,66.8,62.8,69.1,65.1,61.3,96,94,87,30.09,29.97,10,2,12,0.18
2013-1-12,79.2,72.0,68.2,70.9,68.3,66.4,96,88,69,30.02,29.87,23,5,23,0.01
2013-1-13,76.5,62.4,46.6,71.4,59.7,45.0,95,91,76,30.12,29.78,25,6,25,1.36
2013-1-14,46.6,42.6,37.4,45.0,41.0,35.8,95,94,91,30.17,30.06,22,7,22,1.14
2013-1-15,43.2,41.1,37.6,42.1,39.9,36.3,96,95,93,30.10,29.97,13,5,13,0.50
2013-1-16,37.8,36.8,35.8,36.3,35.0,34.2,95,94,92,30.17,30.03,15,4,15,0.05
2013-1-19,66.6,56.2,46.2,48.9,46.5,43.3,90,71,51,30.27,30.22,10,1,11,0.00
2013-1-20,68.4,51.9,37.9,47.5,41.2,36.1,95,71,34,30.27,30.13,9,1,10,0.00
2013-1-21,67.6,53.8,41.0,49.1,44.5,38.8,94,73,45,30.23,30.13,11,2,11,0.00
2013-1-22,65.5,53.0,43.9,46.9,42.5,37.0,87,69,47,30.36,30.21,11,2,12,0.00
2013-1-23,73.2,58.2,43.7,53.2,48.1,41.7,95,72,36,30.39,30.27,12,2,14,0.00
2013-1-24,74.5,61.9,49.8,60.1,55.1,47.8,94,79,60,30.33,30.20,10,2,11,0.00
2013-1-25,77.2,64.2,54.3,60.8,57.2,52.0,93,79,56,30.24,30.12,18,3,18,0.00
2013-1-26,75.0,62.9,54.7,65.7,58.2,53.2,97,85,64,30.26,30.16,9,1,9,0.01
2013-1-27,76.8,65.0,54.9,62.8,58.6,53.1,95,81,58,30.25,30.16,20,3,22,0.01
2013-1-28,75.7,66.5,59.7,66.4,62.1,57.0,93,86,70,30.23,30.09,19,2,19,0.00
2013-1-29,79.3,69.7,65.5,70.0,66.0,63.5,95,88,72,30.10,29.75,25,5,25,0.05
2013-1-30,61.7,54.1,42.3,55.8,41.6,33.4,95,65,39,30.20,29.69,20,3,20,0.79
2013-1-31,61.9,49.8,37.8,39.4,32.9,25.7,89,57,27,30.35,30.20,11,1,11,0.00